Location: Kellogg
(38.0159°N, 90.0546°W)
Time: 21:45:43
(UTC+00:00)

Vanguard 2 - Pass Details

Date: 28 September 2024
Orbit: 552 x 2910 km, 32.9° (Epoch: 09 October)

Event Time Altitude Azimuth Distance (km) Brightness Sun altitude
Rises 03:08:17 0° 211° (SSW) 4,331 11.4 -38.4°
Enters shadow 03:08:51 - 210° (SSW) 4,146 11.2 -38.5°
Reaches altitude 10° 03:13:12 10° 189° (S) 2,849 - -39.2°
Maximum altitude 03:16:29 14° 160° (SSE) 2,244 - -39.7°
Drops below altitude 10° 03:19:13 10° 128° (SE) 2,285 - -40.1°
Sets 03:22:24 0° 101° (ESE) 2,963 - -40.6°
